map of PLL home
PLL - Airport
Location
City:  Manaus, Amazonas, Brazil
Name:Manaus AFB
Old (Alt.):Ponta Pelada Airport
ICAO:SBMN
IATA:PLL

Details
Type:Airport (Aerodrome, Airfield)
Use:Military
Latitude:308'46"S (-3.146041)
Longitude:5959'11"W (-59.986299)
Datum:WGS 1984
Elevation:267 ft (81 m)
Variation:15.70W (WMM2015 magnetic declination)
-0.12 annual change
Runways:1
Longest:7605 × 148 ft (2318 × 45 m), paved

Time
Time Zone:UTC-4
Local Time:

Weather
METAR:SBMN 221200Z 05005KT 9999 BKN008 BKN100 24/22 Q1012
TAF:SBMN 221000Z 2212/2312 08005KT 9999 SCT012 TX29/2218Z TN22/2308Z
BECMG 2213/2215 13005KT SCT020
BECMG 2216/2218 SCT025 FEW030TCU PROB30
TEMPO 2218/2222 5000 TSRA SCT010 BKN020 FEW030CB
BECMG 2223/2301 12005KT SCT015
RMK PCQ

Related Locations
Nearby:
Farthest:SMM: 12307 mi / 19806 km
Semporna, 12, MY

Find:

   beyond  
but within

Other Information
Maps:
NOTAMs:
Links:
Sources:

  
flag of Brazil
flag of Amazonas
flag of Manaus
  

Sectional Chart

Flight Planning
at skyvector.com

Satellite Image

Google Maps Satellite view

 

Copyright © 2004-2017 Karl L. Swartz. All rights reserved.
The Great Circle Mapper name and logo are trademarks of the Great Circle Mapper.
All other trademarks mentioned herein belong to their respective owners.
Please see credits for attibutions and further copyright information.

  Follow gcmap on Facebook Follow gcmap on Twitter Follow gcmap on Google+ GCmap on LinkedIn

hCard Microformat

Geo Microformat